User: anonymous   Login
Location: Diebersbach
(48.5163°N, 8.0558°E)
Time: 09:34:05
(UTC+00:00)
Language:

Cosmos 1980 Rocket - Orbit

View from above orbital plane
View from above orbital plane
View from above satellite
View from above satellite

Ground track
Ground track

The orbit data is extracted from the following two-line orbital elements,

1 19650U 88102B   21264.91660655 -.00000241  00000-0 -97903-4 0  9994
2 19650  71.0017 339.5407 0015638 324.2994  35.7082 14.15808388696198
Epoch (UTC): 21 September 2021 21:59:54
Eccentricity: 0.0015638
inclination: 71.0017°
perigee height: 828 km
apogee height: 851 km
right ascension of ascending node: 339.5407°
argument of perigee: 324.2994°
revolutions per day: 14.15808388
mean anomaly at epoch: 35.7082°
orbit number at epoch: 69619

The dashed part of the orbit path shows where the satellite is in the earth's shadow,  

DLR